Powrót do katalogu

FENGYUN 1C DEB

AktywnyPO
NORAD 30207·DEBRIS·🇨🇳 China

Wystrzelony May 10, 1999 z Taiyuan Satellite Launch Center

Loading…

Następne Przeloty (najbliższe 24 godziny)

TLE

ŚwieżeSource: Space-Track

Epoka: Sep 14, 2026, 05:00 UTC

1 30207U 99025VQ  26257.20839237  .00000164  00000-0  15129-3 0  9995
2 30207  98.5804 347.2814 0260804 123.2532 268.4109 13.79266124988607

Śledź FENGYUN 1C DEB w czasie rzeczywistym z AllMySat

Download on the App Store